FW3322 Weather Reports


Display with metric or nautical units.
time (UTC)temp
F
wind
direction
speed
MPH
gust
MPH
rain 1hr
in
rain 24hr
in
rain mn
in
humidity
%
barometer
mb
20260906180023 101 142 2.0 7.0 0.00 0.00 0.00 46 1012.8
20260906174522 102 57 3.0 8.0 0.00 0.00 0.00 45 1013.1
20260906173018 101 168 0.0 4.0 0.00 0.00 0.00 48 1013.5
20260906171518 100 147 4.0 7.0 0.00 0.00 0.00 49 1013.9
20260906170013 99 350 2.0 6.0 0.00 0.00 0.00 51 1014.0
20260906164511 98 313 1.0 5.0 0.00 0.00 0.00 51 1014.1
20260906163007 97 198 1.0 6.0 0.00 0.00 0.00 54 1014.2
20260906161508 96 94 1.0 5.0 0.00 0.00 0.00 55 1014.2
20260906160015 96 53 0.0 1.0 0.00 0.00 0.00 54 1014.4
20260906154601 94 341 0.0 4.0 0.00 0.00 0.00 57 1014.4
20260906153101 92 314 0.0 4.0 0.00 0.00 0.00 61 1014.3
20260906151605 92 344 1.0 3.0 0.00 0.00 0.00 61 1014.2
20260906150056 92 323 0.0 1.0 0.00 0.00 0.00 60 1014.3
20260906144550 90 128 0.0 1.0 0.00 0.00 0.00 63 1014.1
20260906143106 89 136 0.0 0.0 0.00 0.00 0.00 65 1014.2
20260906141542 87 146 0.0 0.0 0.00 0.00 0.00 68 1014.1
20260906140044 84 103 0.0 4.0 0.00 0.00 0.00 72 1014.0
20260906134539 83 135 0.0 4.0 0.00 0.00 0.00 73 1014.0
20260906133034 83 121 0.0 1.0 0.00 0.00 0.00 73 1014.1
20260906131530 81 11 0.0 1.0 0.00 0.00 0.00 76 1013.9
20260906130039 80 196 0.0 0.0 0.00 0.00 0.00 78 1013.8
20260906124526 76 196 0.0 0.0 0.00 0.00 0.00 85 1013.5
20260906123031 0 0.0 0.0 0.00 0.00 0.00 1013.2
20260906121517 0 0.0 0.0 0.00 0.00 0.00 1013.0
20260906120013 0 0.0 0.0 0.00 0.00 0.00 1012.9
20260906114508 0 0.0 0.0 0.00 0.00 0.00 1012.7
20260906113004 0 0.0 0.0 0.00 0.00 0.00 1012.9
20260906111601 0 0.0 0.0 0.00 0.00 0.00 1012.8
20260906110056 0 0.0 0.0 0.00 0.00 0.00 1012.7
20260906104551 0 0.0 0.0 0.00 0.00 0.00 1012.7
20260906103047 0 0.0 0.0 0.00 0.00 0.00 1012.6
20260906101544 75 198 0.0 0.0 0.00 0.00 0.00 84 1012.5
20260906100042 76 198 0.0 0.0 0.00 0.00 0.00 83 1012.4
20260906094541 76 198 0.0 0.0 0.00 0.00 0.00 83 1012.4
20260906093039 76 198 0.0 0.0 0.00 0.00 0.00 82 1012.3
20260906091538 77 198 0.0 0.0 0.00 0.00 0.00 81 1012.3
20260906090036 77 198 0.0 0.0 0.00 0.00 0.00 79 1012.2
20260906084535 78 198 0.0 0.0 0.00 0.00 0.00 79 1012.1
20260906083040 79 198 0.0 0.0 0.00 0.00 0.00 78 1012.2
20260906081537 79 198 0.0 0.0 0.00 0.00 0.00 77 1012.0
20260906080034 78 198 0.0 0.0 0.00 0.00 0.00 80 1012.1
20260906074535 78 198 0.0 0.0 0.00 0.00 0.00 79 1012.0
20260906073034 78 198 0.0 0.0 0.00 0.00 0.00 81 1012.0
20260906071528 78 195 0.0 0.0 0.00 0.00 0.00 82 1012.2
20260906070030 79 195 0.0 0.0 0.00 0.00 0.00 81 1012.1
20260906064533 80 212 0.0 0.0 0.00 0.00 0.00 80 1012.1
20260906063124 79 211 0.0 1.0 0.00 0.00 0.00 79 1012.3
20260906061522 80 38 0.0 0.0 0.00 0.00 0.00 80 1012.2
20260906060022 80 38 0.0 0.0 0.00 0.00 0.00 81 1012.3
20260906054520 80 40 0.0 1.0 0.00 0.00 0.00 82 1012.4
20260906053026 80 134 0.0 0.0 0.00 0.00 0.00 82 1012.4
20260906051520 80 134 0.0 0.0 0.00 0.00 0.00 81 1012.4
20260906050044 80 62 0.0 0.0 0.00 0.00 0.00 82 1012.3
20260906044515 80 62 0.0 1.0 0.00 0.00 0.00 83 1012.3
20260906043015 81 209 0.0 0.0 0.00 0.00 0.00 80 1012.3
20260906041516 81 209 0.0 0.0 0.00 0.00 0.00 79 1012.3
20260906040014 81 209 0.0 0.0 0.00 0.00 0.00 79 1012.3
20260906034514 81 209 0.0 0.0 0.00 0.00 0.00 77 1012.3
20260906033014 82 209 0.0 0.0 0.00 0.00 0.00 76 1012.1
20260906031519 82 209 0.0 0.0 0.00 0.00 0.00 75 1011.9
20260906030011 83 209 0.0 0.0 0.00 0.00 0.00 74 1011.8
20260906024510 83 209 0.0 0.0 0.00 0.00 0.00 73 1011.6
20260906023010 84 205 0.0 0.0 0.00 0.00 0.00 72 1011.4
20260906021510 85 205 0.0 0.0 0.00 0.00 0.00 70 1011.2
20260906020010 86 205 0.0 0.0 0.00 0.00 0.00 68 1011.2
20260906014510 87 205 0.0 0.0 0.00 0.00 0.00 66 1011.0
20260906013010 88 205 0.0 0.0 0.00 0.00 0.00 64 1010.8
20260906011508 90 205 0.0 0.0 0.00 0.00 0.00 63 1010.7
20260906010007 92 205 0.0 0.0 0.00 0.00 0.00 62 1010.6
20260906004507 94 205 0.0 0.0 0.00 0.00 0.00 59 1010.7
20260906003006 96 205 0.0 0.0 0.00 0.00 0.00 55 1010.7
20260906001505 99 167 0.0 0.0 0.00 0.00 0.00 50 1010.7
20260906000005 101 127 0.0 0.0 0.00 0.00 0.00 46 1010.7
20260905234503 101 121 0.0 1.0 0.00 0.00 0.00 48 1010.6
20260905233003 101 128 0.0 4.0 0.00 0.00 0.00 45 1010.5
20260905231503 102 116 0.0 5.0 0.00 0.00 0.00 45 1010.4
20260905230002 103 92 0.0 2.0 0.00 0.00 0.00 44 1010.5
20260905224609 103 156 2.0 3.0 0.00 0.00 0.00 44 1010.5
20260905223059 102 140 2.0 7.0 0.00 0.00 0.00 45 1010.6
20260905223002 102 127 1.0 5.0 0.00 0.00 0.00 45 1010.6
20260905221600 102 133 2.0 8.0 0.00 0.00 0.00 44 1010.6
20260905220057 102 322 0.0 6.0 0.00 0.00 0.00 44 1010.8
20260905214606 102 111 3.0 8.0 0.00 0.00 0.00 44 1010.8
20260905213053 101 195 4.0 9.0 0.00 0.00 0.00 45 1010.9
20260905211551 102 138 5.0 8.0 0.00 0.00 0.00 45 1011.3
20260905210050 102 107 3.0 10.0 0.00 0.00 0.00 45 1011.4
20260905204548 103 226 5.0 8.0 0.00 0.00 0.00 45 1011.6
20260905203045 103 186 2.0 7.0 0.00 0.00 0.00 45 1011.9
20260905201541 102 130 1.0 9.0 0.00 0.00 0.00 45 1012.0
20260905200043 102 17 1.0 7.0 0.00 0.00 0.00 45 1012.3
20260905194534 101 218 3.0 7.0 0.00 0.00 0.00 45 1012.5
20260905193032 101 115 2.0 8.0 0.00 0.00 0.00 47 1012.6
20260905191529 99 155 5.0 9.0 0.00 0.00 0.00 48 1012.9
20260905190029 98 14 2.0 7.0 0.00 0.00 0.00 51 1013.0
20260905184536 98 65 2.0 6.0 0.00 0.00 0.00 51 1013.4
20260905183030 98 126 1.0 7.0 0.00 0.00 0.00 51 1013.6
20260905181526 99 132 6.0 9.0 0.00 0.00 0.00 50 1013.8